Regional Weather Roundup
Issued by NWS Kansas City/Pleasant Hill, MO

Home | Current Version | Previous Version | Graphics & Text | Print | Product List | Glossary Off
Versions: 1 2 3 4 5 6 7 8 9 10 11 12 13 14 15 16 17 18 19 20 21 22 23 24 25 26 27 28 29 30 31 32 33 34 35 36 37 38 39 40 41 42 43 44 45 46 47 48 49 50

000
ASUS43 KEAX 021011
RWREAX

WEATHER ROUNDUP FOR EASTERN KANSAS AND NORTHWEST MISSOURI
NATIONAL WEATHER SERVICE KANSAS CITY/PLEASANT HILL MO
500 AM CDT THU OCT 02 2014

KSZ040-057-103>105-MOZ028-029-037-043-021100-
...KANSAS CITY METROPOLITAN AREA...

CITY           SKY/WX    TMP DP  RH WIND       PRES   REMARKS
K.C. INTL      CLOUDY    67  64  90 SE10      29.73R
K.C. DOWNTOWN  CLOUDY    68  64  87 E5        29.73R
LEES SUMMIT    CLOUDY    65  63  93 E8        29.76R
OLATHE - IXD   MOCLDY    66  65  96 SE9       29.74S
OLATHE - OJC   CLOUDY    65  64  97 SE7       29.73S
LAWRENCE       CLEAR     64  62  93 SE6       29.72S

$$

MOZ001>008-011>017-020>025-030>033-038>040-044>046-053-054-021100-
...NORTHERN AND CENTRAL MISSOURI...

CITY           SKY/WX    TMP DP  RH WIND       PRES   REMARKS
ST. JOSEPH     CLOUDY    65  64  97 NE6       29.73R
MOSBY          CLOUDY    64  64 100 SE8       29.74R
WHITEMAN AFB   TSTM      66  64  94 SE5       29.76R
CLINTON        CLOUDY    70  68  94 SE10      29.75F THUNDER FOG
SEDALIA        CLOUDY    67  65  93 SE7       29.77F
WARSAW         NOT AVBL
MARSHALL       CLOUDY    66  66 100 NE7       29.80S
CHILLICOTHE      N/A     65  63  93 SE6       29.79R
MOBERLY        CLOUDY    64  61  88 S3        29.84R
KIRKSVILLE     CLOUDY    64  63  96 SE8       29.81R

$$

MOZ041-047>049-056>058-063>065-088>090-097-021100-
...EASTERN AND SOUTHERN MISSOURI...

CITY           SKY/WX    TMP DP  RH WIND       PRES   REMARKS
ST. LOUIS INTL LGT RAIN  67  64  90 E5        29.88F
SPIRIT OF STL  LGT RAIN  65  64  97 E7        29.85F
COLUMBIA       LGT RAIN  64  63  96 E10       29.82F
ROLLA          CLOUDY    70  66  87 E7        29.83R
LEBANON        PTCLDY    70  68  94 S7        29.83R
OSAGE BEACH    CLOUDY    66  63  88 NE8       29.82R
SPRINGFIELD    CLOUDY    72  68  87 S14       29.79R
BRANSON        MOCLDY    72  68  88 CALM      29.84R
NEVADA         LGT RAIN  70  68  94 SE9       29.76F
JOPLIN         TSTM      66  64  93 SE9       29.79R FOG
WEST PLAINS    CLEAR     69  66  90 S7        29.86S

$$

IAZ060-094-KSZ022-034>040-054-083-096-NEZ052-066-093-021100-
...KANSAS...SOUTHEAST NEBRASKA AND IOWA...

CITY           SKY/WX    TMP DP  RH WIND       PRES   REMARKS
TOPEKA         CLEAR     65  65 100 E3        29.71S
MANHATTAN      CLEAR     63  62  97 N6        29.69R
EMPORIA        PTCLDY    66  65  96 S9        29.71R
CHANUTE        MOCLDY    70  66  87 S12G21    29.73R
WICHITA        PTCLDY    70  64  81 S10       29.67S
OMAHA          FOG       64  63  96 CALM      29.77S VSB 1/2
LINCOLN        LGT RAIN  60  57  89 NW21G31   29.80R
FALLS CITY     CLOUDY    65  64  97 NE6       29.73R
LAMONI         CLOUDY    64  63  96 E3        29.77S FOG
DES MOINES     CLOUDY    65  63  93 E3        29.77S FOG

$$




USA.gov is the U.S. government's official web portal to all federal, state and local government web resources and services.